ARN100 CYHZ-CYQM

Flight info

Callsign ARN100
Flight time N/A
Altitude 16000
Route DCT
Aircraft RJ1H/M-WX/S

Departure

Time N/A
Airport Halifax / Stanfield International Airport (CYHZ)

Arrival

Time 2026-05-03 22:26
Airport Greater Moncton Roméo LeBlanc International Airport (CYQM)
Time Latitude Longitude Altitude Speed Heading
2026-05-03 22:06 45.15767 -63.78719 13153 ft 396 kts 316°
2026-05-03 22:06 45.17830 -63.81341 13618 ft 400 kts 316°
2026-05-03 22:07 45.19855 -63.83916 14523 ft 389 kts 316°
2026-05-03 22:07 45.21859 -63.86469 15010 ft 389 kts 316°
2026-05-03 22:07 45.23867 -63.88997 15143 ft 380 kts 316°
2026-05-03 22:07 45.25863 -63.91528 15494 ft 386 kts 316°
2026-05-03 22:08 45.27857 -63.94099 15967 ft 391 kts 316°
2026-05-03 22:08 45.29881 -63.96710 16137 ft 388 kts 316°
2026-05-03 22:08 45.31883 -63.99254 16179 ft 387 kts 317°
2026-05-03 22:08 45.33842 -64.01745 16203 ft 367 kts 317°
2026-05-03 22:09 45.35705 -64.04116 16096 ft 354 kts 317°
2026-05-03 22:09 45.37510 -64.06439 16032 ft 351 kts 316°
2026-05-03 22:09 45.39319 -64.08802 15996 ft 354 kts 316°
2026-05-03 22:10 45.42948 -64.13463 15375 ft 352 kts 316°
2026-05-03 22:10 45.44769 -64.15803 14860 ft 352 kts 316°
2026-05-03 22:10 45.46549 -64.18114 14400 ft 350 kts 316°
2026-05-03 22:10 45.48364 -64.20476 13918 ft 349 kts 316°
2026-05-03 22:11 45.50131 -64.22778 13460 ft 348 kts 316°
2026-05-03 22:11 45.51910 -64.25100 12991 ft 346 kts 317°
2026-05-03 22:11 45.53652 -64.27396 12699 ft 337 kts 318°
2026-05-03 22:11 45.55361 -64.29640 12387 ft 326 kts 319°
2026-05-03 22:12 45.57003 -64.31773 12252 ft 309 kts 319°
2026-05-03 22:12 45.58591 -64.33834 11745 ft 308 kts 320°
2026-05-03 22:12 45.60156 -64.35882 11527 ft 303 kts 320°
2026-05-03 22:12 45.61708 -64.37895 11228 ft 300 kts 321°
2026-05-03 22:13 45.63224 -64.39878 10812 ft 287 kts 321°
2026-05-03 22:13 45.64640 -64.41744 10283 ft 271 kts 322°
2026-05-03 22:13 45.66024 -64.43561 10154 ft 267 kts 322°
2026-05-03 22:13 45.67389 -64.45349 9993 ft 266 kts 322°
2026-05-03 22:14 45.68747 -64.47131 9778 ft 264 kts 323°
2026-05-03 22:14 45.70099 -64.48889 9513 ft 261 kts 323°
2026-05-03 22:14 45.71427 -64.50624 8847 ft 252 kts 322°
2026-05-03 22:14 45.72697 -64.52273 8155 ft 242 kts 324°
2026-05-03 22:15 45.73929 -64.53878 7749 ft 240 kts 323°
2026-05-03 22:15 45.75169 -64.55479 7473 ft 241 kts 324°
2026-05-03 22:15 45.76410 -64.57091 7167 ft 240 kts 324°
2026-05-03 22:15 45.77631 -64.58697 6918 ft 237 kts 324°
2026-05-03 22:16 45.78852 -64.60285 6656 ft 237 kts 324°
2026-05-03 22:16 45.80057 -64.61867 6386 ft 234 kts 324°
2026-05-03 22:16 45.81248 -64.63447 6118 ft 232 kts 326°
2026-05-03 22:16 45.82447 -64.65018 5858 ft 234 kts 326°
2026-05-03 22:17 45.83643 -64.66585 5576 ft 232 kts 326°
2026-05-03 22:17 45.84828 -64.68150 5299 ft 231 kts 326°
2026-05-03 22:17 45.85989 -64.69688 5047 ft 229 kts 326°
2026-05-03 22:17 45.87161 -64.71214 4772 ft 226 kts 327°
2026-05-03 22:18 45.88322 -64.72718 4487 ft 223 kts 326°
2026-05-03 22:18 45.89484 -64.74151 4260 ft 215 kts 335°
2026-05-03 22:18 45.90651 -64.75514 4108 ft 215 kts 323°
2026-05-03 22:18 45.91675 -64.77022 3759 ft 207 kts 322°
2026-05-03 22:19 45.92654 -64.78480 3308 ft 197 kts 321°
2026-05-03 22:19 45.93558 -64.79896 3126 ft 189 kts 321°
2026-05-03 22:19 45.94451 -64.81258 3083 ft 188 kts 321°
2026-05-03 22:19 45.95333 -64.82646 3059 ft 189 kts 320°
2026-05-03 22:20 45.96210 -64.84029 3050 ft 181 kts 323°
2026-05-03 22:20 45.97255 -64.84664 3075 ft 161 kts 10°
2026-05-03 22:20 45.98298 -64.84157 3091 ft 158 kts 25°
2026-05-03 22:20 45.99246 -64.83546 3073 ft 143 kts 27°
2026-05-03 22:21 46.00098 -64.82813 3088 ft 141 kts 37°
2026-05-03 22:21 46.00851 -64.82010 2897 ft 127 kts 37°
2026-05-03 22:21 46.01505 -64.81261 2733 ft 116 kts 38°
2026-05-03 22:21 46.02118 -64.80513 2571 ft 116 kts 39°
2026-05-03 22:22 46.02725 -64.79730 2413 ft 118 kts 39°
2026-05-03 22:22 46.03338 -64.78940 2230 ft 118 kts 40°
2026-05-03 22:22 46.03939 -64.78154 2076 ft 116 kts 39°
2026-05-03 22:22 46.04547 -64.77375 1905 ft 117 kts 39°
2026-05-03 22:23 46.05153 -64.76589 1757 ft 115 kts 39°
2026-05-03 22:23 46.05697 -64.75872 1571 ft 100 kts 40°
2026-05-03 22:23 46.06203 -64.75219 1437 ft 97 kts 40°
2026-05-03 22:23 46.06698 -64.74552 1308 ft 96 kts 40°
2026-05-03 22:24 46.07200 -64.73888 1182 ft 101 kts 39°
2026-05-03 22:24 46.07719 -64.73223 1006 ft 101 kts 38°
2026-05-03 22:24 46.08221 -64.72547 856 ft 99 kts 36°
2026-05-03 22:24 46.08754 -64.71859 748 ft 104 kts 39°
2026-05-03 22:25 46.09312 -64.71148 625 ft 110 kts 37°
2026-05-03 22:25 46.09870 -64.70418 427 ft 106 kts 37°
2026-05-03 22:25 46.10388 -64.69692 335 ft 107 kts 39°
2026-05-03 22:25 46.10941 -64.68982 209 ft 108 kts 39°
2026-05-03 22:26 46.11436 -64.68327 209 ft 76 kts 43°
2026-05-03 22:26 46.11713 -64.67959 197 ft 38 kts 42°
2026-05-03 22:26 46.11829 -64.67842 201 ft 16 kts 342°
2026-05-03 22:26 46.11911 -64.67943 209 ft 12 kts 304°
2026-05-03 22:27 46.11900 -64.68039 202 ft 12 kts 224°
2026-05-03 22:27 46.11826 -64.68139 202 ft 17 kts 223°
2026-05-03 22:27 46.11726 -64.68272 200 ft 22 kts 223°
2026-05-03 22:27 46.11607 -64.68429 199 ft 22 kts 226°
2026-05-03 22:28 46.11526 -64.68564 207 ft 14 kts 245°
2026-05-03 22:28 46.11532 -64.68638 200 ft 10 kts 308°
2026-05-03 22:28 46.11566 -64.68694 205 ft 5 kts 311°
2026-05-03 22:28 46.11582 -64.68719 204 ft 4 kts 314°
2026-05-03 22:29 46.11586 -64.68726 203 ft 0 kts 313°